CPA561 RJBB-VHHH

Flight info

Callsign CPA561
Flight time N/A
Altitude 36000
Route OBLUR Y236 IVROG Y340 RUSUD Y75 IGBOD Y34 HKC Y50 IGMON A1 ELATO V522 ABBEY
Aircraft A35K/H-SDE2E3GHIJ3J4J5LM1ORWXY/LB1D1

Departure

Time 2026-04-27 07:00
Airport Kansai International Airport (RJBB)

Arrival

Time N/A
Airport Hong Kong International Airport (VHHH)
Time Latitude Longitude Altitude Speed Heading
2026-04-27 06:27 34.43162 135.24243 29 ft 0 kts 317°
2026-04-27 06:49 34.43158 135.24248 27 ft 4 kts 323°
2026-04-27 06:49 34.43139 135.24262 27 ft 2 kts 317°
2026-04-27 06:49 34.43123 135.24285 26 ft 4 kts 292°
2026-04-27 06:49 34.43120 135.24314 26 ft 4 kts 246°
2026-04-27 06:50 34.43125 135.24326 25 ft 4 kts 231°
2026-04-27 06:51 34.43122 135.24322 25 ft 3 kts 231°
2026-04-27 06:52 34.43093 135.24277 27 ft 11 kts 230°
2026-04-27 06:52 34.43030 135.24185 29 ft 18 kts 230°
2026-04-27 06:52 34.42947 135.24063 29 ft 20 kts 230°
2026-04-27 06:52 34.42858 135.23932 29 ft 21 kts 230°
2026-04-27 06:53 34.42795 135.23785 29 ft 18 kts 280°
2026-04-27 06:53 34.42871 135.23668 29 ft 19 kts 321°
2026-04-27 06:53 34.42977 135.23565 29 ft 20 kts 321°
2026-04-27 06:53 34.42996 135.23436 29 ft 16 kts 244°
2026-04-27 06:54 34.43001 135.23328 29 ft 13 kts 299°
2026-04-27 06:54 34.43059 135.23259 29 ft 13 kts 319°
2026-04-27 06:54 34.43135 135.23183 29 ft 16 kts 320°
2026-04-27 06:54 34.43228 135.23090 29 ft 19 kts 322°
2026-04-27 06:55 34.43334 135.22988 29 ft 20 kts 321°
2026-04-27 06:55 34.43446 135.22880 29 ft 21 kts 321°
2026-04-27 06:55 34.43563 135.22765 29 ft 22 kts 321°
2026-04-27 06:55 34.43685 135.22644 29 ft 23 kts 321°
2026-04-27 06:56 34.43814 135.22522 29 ft 23 kts 327°
2026-04-27 06:56 34.43931 135.22572 30 ft 19 kts 43°
2026-04-27 06:56 34.44017 135.22694 30 ft 20 kts 50°
2026-04-27 06:56 34.44107 135.22830 30 ft 21 kts 51°
2026-04-27 06:57 34.44204 135.22974 29 ft 23 kts 51°
2026-04-27 06:57 34.44309 135.23128 29 ft 24 kts 51°
2026-04-27 06:57 34.44417 135.23288 29 ft 25 kts 51°
2026-04-27 06:57 34.44528 135.23455 29 ft 26 kts 51°
2026-04-27 06:58 34.44645 135.23627 30 ft 27 kts 51°
2026-04-27 06:58 34.44891 135.23992 29 ft 29 kts 50°
2026-04-27 06:58 34.45007 135.24076 30 ft 10 kts 337°
2026-04-27 06:59 34.45028 135.24062 30 ft 3 kts 327°
2026-04-27 06:59 34.45060 135.24032 31 ft 11 kts 321°
2026-04-27 06:59 34.45075 135.23923 33 ft 16 kts 239°
2026-04-27 06:59 34.44948 135.23734 33 ft 55 kts 230°
2026-04-27 07:00 34.44566 135.23162 33 ft 118 kts 231°
2026-04-27 07:00 34.43930 135.22217 44 ft 169 kts 229°
2026-04-27 07:00 34.43255 135.21135 795 ft 158 kts 232°
2026-04-27 07:00 34.42849 135.19855 1250 ft 168 kts 265°
2026-04-27 07:01 34.42788 135.18354 1551 ft 190 kts 270°
2026-04-27 07:01 34.42712 135.16643 1812 ft 217 kts 267°
2026-04-27 07:01 34.42476 135.14728 2125 ft 242 kts 262°
2026-04-27 07:01 34.42168 135.12642 2605 ft 259 kts 262°
2026-04-27 07:02 34.41835 135.10438 3168 ft 270 kts 261°
2026-04-27 07:02 34.41500 135.08266 4287 ft 255 kts 262°
2026-04-27 07:02 34.41169 135.06151 5088 ft 259 kts 262°
2026-04-27 07:02 34.40890 135.03976 5717 ft 264 kts 269°
2026-04-27 07:03 34.40817 135.01791 6541 ft 262 kts 272°
2026-04-27 07:03 34.40842 134.99589 7352 ft 263 kts 274°
2026-04-27 07:03 34.40736 134.97347 8035 ft 270 kts 267°
2026-04-27 07:03 34.40604 134.95808 8580 ft 272 kts 266°
2026-04-27 07:04 34.40326 134.92771 9673 ft 275 kts 267°
2026-04-27 07:04 34.39925 134.90495 10417 ft 283 kts 252°
2026-04-27 07:04 34.39333 134.89001 10606 ft 299 kts 244°
2026-04-27 07:04 34.37883 134.86026 11105 ft 323 kts 243°
2026-04-27 07:05 34.37096 134.84419 11348 ft 334 kts 243°
2026-04-27 07:05 34.35900 134.81954 11849 ft 344 kts 243°
2026-04-27 07:05 34.34717 134.79482 12467 ft 348 kts 243°
2026-04-27 07:05 34.33079 134.76073 13397 ft 353 kts 243°
2026-04-27 07:06 34.32261 134.74369 13868 ft 354 kts 243°
2026-04-27 07:06 34.31022 134.71786 14524 ft 356 kts 244°
2026-04-27 07:06 34.29774 134.69181 15252 ft 357 kts 244°
2026-04-27 07:06 34.28503 134.66603 15996 ft 359 kts 241°
2026-04-27 07:07 34.26980 134.64176 16697 ft 364 kts 236°
2026-04-27 07:07 34.25335 134.61817 17356 ft 367 kts 235°
2026-04-27 07:07 34.23686 134.59454 18097 ft 369 kts 236°
2026-04-27 07:07 34.22029 134.57092 18695 ft 371 kts 236°
2026-04-27 07:08 34.20368 134.54708 19319 ft 372 kts 236°
2026-04-27 07:08 34.18686 134.52338 20083 ft 370 kts 237°
2026-04-27 07:08 34.17043 134.49927 20572 ft 374 kts 238°
2026-04-27 07:08 34.15361 134.47501 21166 ft 378 kts 237°
2026-04-27 07:09 34.13663 134.45081 21804 ft 378 kts 238°
2026-04-27 07:09 34.11981 134.42678 22458 ft 379 kts 238°
2026-04-27 07:09 34.10257 134.40212 23105 ft 381 kts 238°
2026-04-27 07:09 34.08545 134.37763 23705 ft 382 kts 239°
2026-04-27 07:10 34.06847 134.35336 24152 ft 385 kts 239°
2026-04-27 07:10 34.05131 134.32852 24614 ft 387 kts 239°
2026-04-27 07:10 34.03413 134.30342 25086 ft 390 kts 239°
2026-04-27 07:10 34.01689 134.27821 25581 ft 392 kts 239°
2026-04-27 07:11 33.99943 134.25269 26060 ft 394 kts 239°
2026-04-27 07:11 33.98199 134.22717 26560 ft 394 kts 239°
2026-04-27 07:11 33.96452 134.20170 27126 ft 395 kts 239°
2026-04-27 07:11 33.94695 134.17605 27603 ft 399 kts 239°
2026-04-27 07:12 33.92916 134.15027 28101 ft 401 kts 239°
2026-04-27 07:12 33.91123 134.12431 28414 ft 407 kts 239°
2026-04-27 07:12 33.89293 134.09797 28831 ft 410 kts 239°
2026-04-27 07:12 33.87466 134.07178 29526 ft 408 kts 239°
2026-04-27 07:13 33.85637 134.04556 29918 ft 410 kts 239°
2026-04-27 07:13 33.83790 134.01922 30252 ft 412 kts 239°
2026-04-27 07:13 33.81946 133.99279 30640 ft 413 kts 239°
2026-04-27 07:13 33.80097 133.96616 31003 ft 416 kts 239°
2026-04-27 07:14 33.78266 133.93984 31410 ft 415 kts 239°
2026-04-27 07:14 33.76397 133.91311 31692 ft 419 kts 239°
2026-04-27 07:14 33.74583 133.88581 31913 ft 418 kts 242°
2026-04-27 07:14 33.72892 133.85760 32108 ft 416 kts 243°
2026-04-27 07:15 33.71245 133.82900 32398 ft 416 kts 244°
2026-04-27 07:15 33.69605 133.80042 32607 ft 414 kts 243°
2026-04-27 07:15 33.67965 133.77217 33052 ft 410 kts 243°
2026-04-27 07:15 33.66316 133.74421 33417 ft 410 kts 243°
2026-04-27 07:16 33.64689 133.71628 33725 ft 407 kts 245°
2026-04-27 07:16 33.63233 133.68732 34034 ft 402 kts 247°
2026-04-27 07:16 33.61853 133.65818 34308 ft 402 kts 248°
2026-04-27 07:16 33.60492 133.62898 34606 ft 401 kts 248°
2026-04-27 07:17 33.59146 133.59985 34911 ft 399 kts 248°
2026-04-27 07:17 33.57806 133.57080 35209 ft 398 kts 248°
2026-04-27 07:17 33.56464 133.54174 35487 ft 397 kts 248°
2026-04-27 07:17 33.55130 133.51290 35762 ft 396 kts 248°
2026-04-27 07:18 33.53789 133.48397 35891 ft 398 kts 248°
2026-04-27 07:18 33.51071 133.42543 35919 ft 403 kts 247°
2026-04-27 07:19 33.48342 133.36695 35903 ft 402 kts 247°
2026-04-27 07:19 33.45629 133.30886 35907 ft 401 kts 247°
2026-04-27 07:20 33.42892 133.25065 35909 ft 402 kts 247°
2026-04-27 07:20 33.40160 133.19221 35924 ft 403 kts 247°
2026-04-27 07:21 33.37419 133.13359 35924 ft 403 kts 247°
2026-04-27 07:21 33.34682 133.07509 35922 ft 403 kts 247°
2026-04-27 07:22 33.31934 133.01664 35942 ft 404 kts 247°
2026-04-27 07:22 33.29173 132.95807 35930 ft 403 kts 246°
2026-04-27 07:23 33.26426 132.89965 35941 ft 403 kts 247°
2026-04-27 07:23 33.23668 132.84123 35935 ft 403 kts 246°
2026-04-27 07:24 33.20916 132.78339 35929 ft 403 kts 246°
2026-04-27 07:24 33.18136 132.72521 35935 ft 403 kts 246°
2026-04-27 07:25 33.15073 132.66849 35943 ft 408 kts 243°
2026-04-27 07:25 33.11829 132.61282 35924 ft 410 kts 242°
2026-04-27 07:26 33.08537 132.55723 35943 ft 409 kts 242°
2026-04-27 07:26 33.05254 132.50172 35944 ft 409 kts 242°
2026-04-27 07:27 33.01975 132.44630 35946 ft 409 kts 242°
2026-04-27 07:27 32.98697 132.39094 35943 ft 409 kts 242°
2026-04-27 07:28 32.95272 132.33649 35949 ft 413 kts 238°
2026-04-27 07:28 32.91556 132.28471 35949 ft 414 kts 237°
2026-04-27 07:29 32.87802 132.23274 35952 ft 414 kts 237°
2026-04-27 07:29 32.84101 132.18050 35952 ft 413 kts 238°
2026-04-27 07:30 32.80415 132.12798 35950 ft 413 kts 238°
2026-04-27 07:30 32.76727 132.07543 35964 ft 413 kts 238°
2026-04-27 07:31 32.73039 132.02299 35952 ft 413 kts 238°
2026-04-27 07:31 32.69370 131.97092 35957 ft 414 kts 237°
2026-04-27 07:32 32.65669 131.91850 35957 ft 414 kts 237°
2026-04-27 07:32 32.61971 131.86618 35938 ft 414 kts 237°
2026-04-27 07:33 32.58266 131.81383 35948 ft 415 kts 237°
2026-04-27 07:33 32.54550 131.76148 35946 ft 415 kts 237°
2026-04-27 07:34 32.50833 131.70902 35952 ft 415 kts 237°
2026-04-27 07:34 32.47110 131.65651 35948 ft 417 kts 237°
2026-04-27 07:35 32.43375 131.60400 35947 ft 417 kts 237°
2026-04-27 07:35 32.39634 131.55151 35961 ft 417 kts 237°
2026-04-27 07:36 32.35924 131.49933 35928 ft 417 kts 237°
2026-04-27 07:36 32.32163 131.44659 35942 ft 419 kts 236°
2026-04-27 07:37 32.28385 131.39402 35947 ft 420 kts 236°
2026-04-27 07:37 32.24614 131.34138 35924 ft 420 kts 237°
2026-04-27 07:38 32.20835 131.28858 35955 ft 423 kts 236°
2026-04-27 07:38 32.17032 131.23576 36068 ft 421 kts 236°
2026-04-27 07:38 32.15131 131.20925 35961 ft 422 kts 236°
2026-04-27 07:39 32.13233 131.18283 35958 ft 422 kts 236°
2026-04-27 07:39 32.09446 131.13022 35946 ft 424 kts 236°
2026-04-27 07:40 32.05600 131.07692 35957 ft 427 kts 236°
2026-04-27 07:40 32.01741 131.02365 35957 ft 427 kts 235°
2026-04-27 07:41 31.97879 130.97040 35969 ft 427 kts 236°
2026-04-27 07:41 31.94021 130.91699 35966 ft 430 kts 235°
2026-04-27 07:42 31.90142 130.86340 35970 ft 430 kts 235°
2026-04-27 07:42 31.86260 130.80981 35961 ft 430 kts 235°
2026-04-27 07:43 31.82363 130.75629 35961 ft 431 kts 235°
2026-04-27 07:43 31.78470 130.70260 35970 ft 432 kts 236°
2026-04-27 07:44 31.74561 130.64903 35964 ft 431 kts 235°
2026-04-27 07:44 31.70643 130.59555 35968 ft 431 kts 235°
2026-04-27 07:45 31.66816 130.54131 35974 ft 431 kts 238°
2026-04-27 07:45 31.63215 130.48550 35985 ft 432 kts 238°
2026-04-27 07:46 31.59598 130.42930 35988 ft 431 kts 238°
2026-04-27 07:46 31.55943 130.37339 35995 ft 432 kts 238°
2026-04-27 07:47 31.52270 130.31772 35991 ft 432 kts 238°
2026-04-27 07:47 31.48586 130.26204 35993 ft 432 kts 238°
2026-04-27 07:48 31.44906 130.20646 35999 ft 431 kts 238°
2026-04-27 07:48 31.41226 130.15092 35998 ft 432 kts 238°
2026-04-27 07:49 31.37549 130.09550 36000 ft 433 kts 237°
2026-04-27 07:49 31.33847 130.03982 35999 ft 433 kts 237°
2026-04-27 07:50 31.30150 129.98428 36001 ft 433 kts 237°
2026-04-27 07:50 31.26439 129.92861 35998 ft 434 kts 237°
2026-04-27 07:51 31.22722 129.87292 35996 ft 435 kts 237°
2026-04-27 07:51 31.18999 129.81724 36001 ft 435 kts 237°
2026-04-27 07:52 31.15277 129.76163 35987 ft 435 kts 237°
2026-04-27 07:52 31.11547 129.70598 36005 ft 435 kts 237°
2026-04-27 07:53 31.07808 129.65030 36007 ft 436 kts 237°
2026-04-27 07:53 31.04092 129.59503 36008 ft 436 kts 237°
2026-04-27 07:54 31.00350 129.53945 35998 ft 436 kts 236°
2026-04-27 07:54 30.96595 129.48375 36007 ft 437 kts 236°
2026-04-27 07:55 30.92837 129.42810 36007 ft 437 kts 236°
2026-04-27 07:55 30.89712 129.38188 36007 ft 437 kts 236°
2026-04-27 07:56 30.85947 129.32626 36006 ft 438 kts 236°
2026-04-27 07:56 30.82175 129.27061 36007 ft 438 kts 236°
2026-04-27 07:57 30.78395 129.21493 36008 ft 438 kts 236°
2026-04-27 07:57 30.74640 129.15908 36007 ft 438 kts 237°
2026-04-27 07:58 30.70961 129.10269 36009 ft 439 kts 237°
2026-04-27 07:58 30.67279 129.04628 36006 ft 439 kts 237°
2026-04-27 07:59 30.63573 128.98986 36006 ft 439 kts 237°
2026-04-27 07:59 30.58058 128.90626 36004 ft 439 kts 237°
2026-04-27 08:00 30.54338 128.84999 36015 ft 439 kts 237°
2026-04-27 08:00 30.50617 128.79377 36016 ft 439 kts 237°
2026-04-27 08:01 30.46895 128.73761 36018 ft 439 kts 237°
2026-04-27 08:01 30.43166 128.68142 36013 ft 440 kts 237°
2026-04-27 08:02 30.39427 128.62516 36019 ft 440 kts 237°
2026-04-27 08:02 30.35686 128.56896 36018 ft 440 kts 237°
2026-04-27 08:03 30.31939 128.51275 36018 ft 440 kts 237°
2026-04-27 08:03 30.28193 128.45662 36012 ft 441 kts 237°
2026-04-27 08:04 30.24444 128.40053 36018 ft 441 kts 237°
2026-04-27 08:04 30.20696 128.34452 36028 ft 441 kts 237°
2026-04-27 08:05 30.16940 128.28849 36030 ft 440 kts 237°
2026-04-27 08:05 30.13206 128.23286 36023 ft 440 kts 237°
2026-04-27 08:06 30.09452 128.17700 36015 ft 440 kts 237°
2026-04-27 08:06 30.05691 128.12113 36018 ft 440 kts 237°
2026-04-27 08:07 30.01931 128.06534 36018 ft 440 kts 237°
2026-04-27 08:07 29.98166 128.00954 36018 ft 440 kts 237°
2026-04-27 08:08 29.94400 127.95382 36030 ft 441 kts 237°
2026-04-27 08:08 29.90630 127.89811 36017 ft 441 kts 237°
2026-04-27 08:09 29.86857 127.84245 36014 ft 441 kts 237°
2026-04-27 08:09 29.82964 127.78762 36016 ft 443 kts 234°
2026-04-27 08:10 29.78938 127.73450 36021 ft 443 kts 234°
2026-04-27 08:10 29.74888 127.68103 36021 ft 443 kts 234°
2026-04-27 08:11 29.70868 127.62743 36020 ft 442 kts 234°
2026-04-27 08:11 29.66857 127.57375 36019 ft 442 kts 234°
2026-04-27 08:12 29.62848 127.52015 36023 ft 442 kts 234°
2026-04-27 08:12 29.58825 127.46644 36027 ft 442 kts 234°
2026-04-27 08:13 29.54925 127.41200 36026 ft 441 kts 237°
2026-04-27 08:13 29.51186 127.35688 36026 ft 440 kts 237°
2026-04-27 08:14 29.47409 127.30145 36029 ft 440 kts 237°
2026-04-27 08:14 29.43606 127.24630 36029 ft 441 kts 237°
2026-04-27 08:15 29.39788 127.19127 36029 ft 441 kts 236°
2026-04-27 08:15 29.35967 127.13629 36029 ft 441 kts 237°
2026-04-27 08:16 29.32143 127.08130 36031 ft 441 kts 237°
2026-04-27 08:16 29.28313 127.02629 36029 ft 441 kts 237°
2026-04-27 08:17 29.24480 126.97131 36028 ft 441 kts 237°
2026-04-27 08:17 29.20649 126.91642 36019 ft 442 kts 237°
2026-04-27 08:18 29.16803 126.86141 36023 ft 442 kts 237°
2026-04-27 08:18 29.12958 126.80648 36024 ft 442 kts 237°
2026-04-27 08:19 29.09130 126.75187 36023 ft 442 kts 236°
2026-04-27 08:19 29.05278 126.69698 36010 ft 443 kts 236°
2026-04-27 08:20 29.01411 126.64193 36021 ft 445 kts 236°
2026-04-27 08:20 28.97534 126.58685 36024 ft 445 kts 236°
2026-04-27 08:21 28.93572 126.53231 36123 ft 448 kts 232°
2026-04-27 08:21 28.91313 126.50751 36377 ft 451 kts 227°
2026-04-27 08:21 28.89036 126.48316 36653 ft 448 kts 229°
2026-04-27 08:22 28.86920 126.45742 36866 ft 442 kts 236°
2026-04-27 08:22 28.85056 126.42956 37121 ft 439 kts 239°
2026-04-27 08:22 28.83274 126.40138 37385 ft 437 kts 239°
2026-04-27 08:22 28.81468 126.37346 37624 ft 437 kts 238°
2026-04-27 08:23 28.79636 126.34644 37860 ft 436 kts 236°
2026-04-27 08:23 28.77727 126.31948 38013 ft 437 kts 236°
2026-04-27 08:23 28.73818 126.26643 38024 ft 437 kts 234°
2026-04-27 08:24 28.69864 126.21370 38020 ft 438 kts 234°
2026-04-27 08:24 28.65900 126.16083 38021 ft 439 kts 234°
2026-04-27 08:25 28.61954 126.10796 38041 ft 438 kts 235°
2026-04-27 08:25 28.58131 126.05400 38022 ft 437 kts 236°
2026-04-27 08:26 28.54372 126.00017 38021 ft 437 kts 236°
2026-04-27 08:26 28.50559 125.94609 38020 ft 438 kts 236°
2026-04-27 08:27 28.46735 125.89225 38019 ft 438 kts 236°
2026-04-27 08:27 28.42907 125.83852 38018 ft 438 kts 236°
2026-04-27 08:28 28.39069 125.78469 38019 ft 438 kts 235°
2026-04-27 08:28 28.35228 125.73087 38025 ft 439 kts 235°
2026-04-27 08:29 28.31374 125.67695 38022 ft 440 kts 235°
2026-04-27 08:29 28.27516 125.62303 38019 ft 440 kts 235°
2026-04-27 08:30 28.23657 125.56917 38023 ft 440 kts 235°
2026-04-27 08:30 28.19790 125.51526 38019 ft 441 kts 235°
2026-04-27 08:31 28.15915 125.46131 38025 ft 442 kts 235°
2026-04-27 08:31 28.12063 125.40776 38024 ft 442 kts 235°
2026-04-27 08:32 28.08175 125.35377 38016 ft 442 kts 235°
2026-04-27 08:32 28.04288 125.29984 38014 ft 442 kts 234°
2026-04-27 08:33 28.00395 125.24591 38030 ft 443 kts 234°
2026-04-27 08:33 27.96485 125.19185 38021 ft 443 kts 234°
2026-04-27 08:34 27.92585 125.13796 38018 ft 443 kts 234°
2026-04-27 08:34 27.88668 125.08392 38010 ft 443 kts 234°
2026-04-27 08:35 27.84783 125.03035 38018 ft 444 kts 234°
2026-04-27 08:35 27.80861 124.97638 38021 ft 444 kts 234°
2026-04-27 08:36 27.76936 124.92242 38018 ft 444 kts 234°
2026-04-27 08:36 27.73009 124.86851 38018 ft 444 kts 234°
2026-04-27 08:37 27.69080 124.81463 38015 ft 444 kts 234°
2026-04-27 08:37 27.65156 124.76090 38018 ft 443 kts 234°
2026-04-27 08:38 27.61231 124.70721 38016 ft 444 kts 234°
2026-04-27 08:38 27.57298 124.65342 38015 ft 444 kts 234°
2026-04-27 08:39 27.53362 124.59958 37994 ft 444 kts 234°
2026-04-27 08:39 27.49439 124.54602 38014 ft 442 kts 234°
2026-04-27 08:40 27.45545 124.49293 38011 ft 442 kts 234°
2026-04-27 08:40 27.41634 124.43967 38014 ft 442 kts 234°
2026-04-27 08:41 27.37713 124.38635 38010 ft 442 kts 234°
2026-04-27 08:41 27.33789 124.33305 38010 ft 442 kts 234°
2026-04-27 08:42 27.29870 124.27988 38013 ft 441 kts 234°
2026-04-27 08:42 27.25958 124.22688 38013 ft 441 kts 234°
2026-04-27 08:43 27.22033 124.17375 38010 ft 441 kts 234°
2026-04-27 08:43 27.18109 124.12071 38009 ft 441 kts 234°
2026-04-27 08:44 27.14183 124.06773 38008 ft 440 kts 234°
2026-04-27 08:44 27.10269 124.01496 38006 ft 440 kts 234°
2026-04-27 08:45 27.06369 123.96270 38005 ft 440 kts 234°
2026-04-27 08:45 27.02421 123.91027 38008 ft 441 kts 233°
2026-04-27 08:46 26.99098 123.86622 38004 ft 441 kts 233°
2026-04-27 08:46 26.95163 123.81410 38005 ft 440 kts 234°
2026-04-27 08:47 26.91207 123.76170 38000 ft 439 kts 234°
2026-04-27 08:47 26.87264 123.70953 38002 ft 439 kts 234°
2026-04-27 08:48 26.83306 123.65721 38000 ft 440 kts 234°
2026-04-27 08:48 26.79341 123.60486 38000 ft 441 kts 234°
2026-04-27 08:49 26.75364 123.55245 38000 ft 442 kts 234°
2026-04-27 08:49 26.71393 123.50016 38006 ft 442 kts 234°
2026-04-27 08:50 26.67405 123.44772 37997 ft 442 kts 234°
2026-04-27 08:50 26.63421 123.39543 37998 ft 442 kts 234°
2026-04-27 08:51 26.59436 123.34315 37980 ft 441 kts 233°
2026-04-27 08:51 26.55481 123.29132 37996 ft 441 kts 233°
2026-04-27 08:52 26.51500 123.23921 37995 ft 440 kts 233°
2026-04-27 08:52 26.47523 123.18722 37997 ft 441 kts 233°
2026-04-27 08:53 26.43539 123.13519 37995 ft 441 kts 233°
2026-04-27 08:53 26.39557 123.08328 37991 ft 438 kts 233°
2026-04-27 08:54 26.35598 123.03172 37987 ft 437 kts 233°
2026-04-27 08:54 26.31638 122.98027 37993 ft 437 kts 233°
2026-04-27 08:55 26.27679 122.92886 37993 ft 437 kts 233°
2026-04-27 08:55 26.23722 122.87746 37991 ft 437 kts 233°
2026-04-27 08:56 26.19758 122.82603 37987 ft 438 kts 232°
2026-04-27 08:56 26.15783 122.77457 37987 ft 438 kts 232°
2026-04-27 08:57 26.09841 122.69779 37985 ft 438 kts 232°
2026-04-27 08:58 26.05858 122.64637 37985 ft 438 kts 232°
2026-04-27 08:58 26.01872 122.59495 37980 ft 440 kts 232°
2026-04-27 08:59 25.97859 122.54325 37982 ft 442 kts 231°
2026-04-27 08:59 25.93830 122.49145 37982 ft 443 kts 231°
2026-04-27 09:00 25.89802 122.43975 37980 ft 443 kts 231°
2026-04-27 09:00 25.85770 122.38792 37983 ft 443 kts 231°
2026-04-27 09:01 25.81742 122.33620 37991 ft 444 kts 231°
2026-04-27 09:01 25.77702 122.28442 37977 ft 444 kts 231°
2026-04-27 09:02 25.73653 122.23261 37976 ft 444 kts 231°
2026-04-27 09:02 25.69604 122.18085 37974 ft 444 kts 231°
2026-04-27 09:03 25.65548 122.12906 37973 ft 444 kts 231°
2026-04-27 09:03 25.61519 122.07767 37970 ft 445 kts 231°
2026-04-27 09:04 25.57451 122.02565 37976 ft 447 kts 231°
2026-04-27 09:04 25.53372 121.97367 37980 ft 447 kts 231°
2026-04-27 09:05 25.49282 121.92171 37958 ft 447 kts 231°
2026-04-27 09:05 25.45191 121.86981 37960 ft 448 kts 231°
2026-04-27 09:06 25.41090 121.81784 37956 ft 449 kts 231°
2026-04-27 09:06 25.36968 121.76564 37948 ft 453 kts 230°
2026-04-27 09:07 25.32781 121.71270 37946 ft 460 kts 230°
2026-04-27 09:07 25.28569 121.65950 37953 ft 459 kts 230°
2026-04-27 09:08 25.24362 121.60642 37947 ft 459 kts 230°
2026-04-27 09:08 25.20179 121.55370 37950 ft 459 kts 230°
2026-04-27 09:09 25.15971 121.50070 37959 ft 459 kts 231°
2026-04-27 09:09 25.11844 121.44716 37953 ft 457 kts 232°
2026-04-27 09:10 25.07744 121.39358 37949 ft 457 kts 231°
2026-04-27 09:10 25.03628 121.34008 37970 ft 457 kts 231°
2026-04-27 09:11 24.99506 121.28676 37961 ft 457 kts 232°
2026-04-27 09:11 24.95376 121.23343 37965 ft 457 kts 232°
2026-04-27 09:12 24.91231 121.17995 37963 ft 459 kts 232°
2026-04-27 09:12 24.87088 121.12655 37971 ft 459 kts 232°
2026-04-27 09:13 24.82937 121.07312 37986 ft 459 kts 232°
2026-04-27 09:13 24.78791 121.01973 37969 ft 459 kts 232°
2026-04-27 09:14 24.74665 120.96669 38001 ft 459 kts 232°
2026-04-27 09:14 24.70514 120.91338 37979 ft 459 kts 232°
2026-04-27 09:15 24.66358 120.86008 37982 ft 459 kts 232°
2026-04-27 09:15 24.62199 120.80679 37980 ft 459 kts 232°
2026-04-27 09:16 24.58037 120.75352 37988 ft 459 kts 232°
2026-04-27 09:16 24.53843 120.70065 37983 ft 460 kts 230°
2026-04-27 09:17 24.49392 120.65007 37965 ft 461 kts 228°
2026-04-27 09:17 24.44909 120.60025 37986 ft 461 kts 228°
2026-04-27 09:18 24.40436 120.54984 37988 ft 461 kts 229°
2026-04-27 09:18 24.35982 120.49918 37986 ft 462 kts 229°
2026-04-27 09:19 24.31523 120.44842 37983 ft 462 kts 229°
2026-04-27 09:19 24.27058 120.39767 37982 ft 462 kts 229°
2026-04-27 09:20 24.22588 120.34694 37973 ft 463 kts 229°
2026-04-27 09:20 24.18104 120.29615 37966 ft 464 kts 229°
2026-04-27 09:21 24.13621 120.24539 37958 ft 464 kts 229°
2026-04-27 09:21 24.09124 120.19449 37958 ft 464 kts 228°
2026-04-27 09:22 24.04628 120.14366 37959 ft 464 kts 228°
2026-04-27 09:22 24.00170 120.09335 37956 ft 464 kts 229°
2026-04-27 09:23 23.95668 120.04257 37937 ft 465 kts 229°
2026-04-27 09:23 23.91166 119.99190 37955 ft 464 kts 229°
2026-04-27 09:24 23.86672 119.94135 37955 ft 464 kts 229°
2026-04-27 09:24 23.82177 119.89085 37949 ft 463 kts 229°
2026-04-27 09:25 23.77682 119.84039 37948 ft 464 kts 229°
2026-04-27 09:25 23.73181 119.78993 37934 ft 463 kts 229°
2026-04-27 09:26 23.68697 119.73973 37948 ft 460 kts 229°
2026-04-27 09:26 23.64234 119.68980 37952 ft 460 kts 229°
2026-04-27 09:27 23.59872 119.63883 37955 ft 457 kts 235°
2026-04-27 09:27 23.56298 119.58188 37953 ft 454 kts 240°
2026-04-27 09:28 23.52920 119.52372 37954 ft 454 kts 241°
2026-04-27 09:28 23.49571 119.46549 37948 ft 452 kts 241°
2026-04-27 09:29 23.46232 119.40772 37945 ft 450 kts 241°
2026-04-27 09:29 23.42888 119.35011 37946 ft 450 kts 241°
2026-04-27 09:30 23.39528 119.29238 37945 ft 450 kts 241°
2026-04-27 09:30 23.36199 119.23525 37954 ft 450 kts 241°
2026-04-27 09:31 23.32847 119.17777 37950 ft 450 kts 241°
2026-04-27 09:31 23.29486 119.12023 37951 ft 449 kts 242°
2026-04-27 09:32 23.26703 119.07262 37955 ft 448 kts 242°
2026-04-27 09:32 23.22791 119.00574 37955 ft 448 kts 242°
2026-04-27 09:33 23.20009 118.95823 37955 ft 448 kts 242°
2026-04-27 09:33 23.16656 118.90105 37955 ft 448 kts 242°
2026-04-27 09:34 23.13302 118.84392 37954 ft 448 kts 242°
2026-04-27 09:34 23.09944 118.78678 37946 ft 448 kts 242°
2026-04-27 09:35 23.06592 118.72981 37955 ft 447 kts 242°
2026-04-27 09:35 23.03261 118.67326 37955 ft 447 kts 242°
2026-04-27 09:36 22.99911 118.61644 37950 ft 447 kts 242°
2026-04-27 09:36 22.96533 118.55921 37952 ft 447 kts 242°
2026-04-27 09:37 22.93190 118.50279 37954 ft 447 kts 241°
2026-04-27 09:37 22.89808 118.44597 37952 ft 447 kts 241°
2026-04-27 09:38 22.86432 118.38931 37949 ft 447 kts 242°
2026-04-27 09:38 22.83055 118.33266 37949 ft 447 kts 241°
2026-04-27 09:39 22.79678 118.27608 37946 ft 447 kts 241°
2026-04-27 09:39 22.76305 118.21962 37947 ft 447 kts 241°
2026-04-27 09:40 22.72922 118.16305 37947 ft 447 kts 241°
2026-04-27 09:40 22.69535 118.10649 37944 ft 447 kts 241°
2026-04-27 09:41 22.66153 118.05006 37948 ft 447 kts 241°
2026-04-27 09:41 22.62766 117.99362 37947 ft 447 kts 241°
2026-04-27 09:42 22.59401 117.93763 37946 ft 447 kts 241°
2026-04-27 09:42 22.56042 117.88121 37944 ft 446 kts 242°
2026-04-27 09:43 22.52691 117.82461 37939 ft 446 kts 242°
2026-04-27 09:43 22.49335 117.76809 37941 ft 446 kts 242°
2026-04-27 09:44 22.45972 117.71162 37944 ft 446 kts 242°
2026-04-27 09:44 22.42612 117.65533 37941 ft 445 kts 242°
2026-04-27 09:45 22.39258 117.59917 37941 ft 444 kts 242°
2026-04-27 09:45 22.35939 117.54289 37939 ft 442 kts 245°
2026-04-27 09:46 22.33709 117.48229 37938 ft 434 kts 260°
2026-04-27 09:46 22.33123 117.41768 37941 ft 433 kts 269°
2026-04-27 09:47 22.33006 117.35258 37941 ft 434 kts 270°
2026-04-27 09:47 22.32936 117.28744 37941 ft 434 kts 270°
2026-04-27 09:48 22.32838 117.22234 37936 ft 434 kts 270°
2026-04-27 09:48 22.32718 117.15712 37939 ft 434 kts 270°
2026-04-27 09:49 22.32589 117.09190 37938 ft 434 kts 270°
2026-04-27 09:49 22.32459 117.02668 37939 ft 435 kts 270°
2026-04-27 09:50 22.32327 116.96142 37934 ft 435 kts 270°
2026-04-27 09:50 22.32192 116.89608 37936 ft 435 kts 270°
2026-04-27 09:51 22.32056 116.83079 37938 ft 435 kts 269°
2026-04-27 09:51 22.31916 116.76545 37938 ft 435 kts 269°
2026-04-27 09:52 22.31774 116.70025 37936 ft 434 kts 269°
2026-04-27 09:52 22.31629 116.63501 37936 ft 434 kts 269°
2026-04-27 09:53 22.31482 116.57017 37938 ft 434 kts 269°
2026-04-27 09:53 22.31332 116.50489 37924 ft 436 kts 269°
2026-04-27 09:53 22.31257 116.47232 37689 ft 433 kts 269°
2026-04-27 09:54 22.31180 116.43980 37422 ft 432 kts 269°
2026-04-27 09:54 22.31103 116.40732 37163 ft 433 kts 269°
2026-04-27 09:54 22.31026 116.37494 36704 ft 428 kts 269°
2026-04-27 09:54 22.30949 116.34290 36152 ft 426 kts 268°
2026-04-27 09:55 22.30872 116.31094 35538 ft 425 kts 268°
2026-04-27 09:55 22.30794 116.27910 34923 ft 424 kts 268°
2026-04-27 09:55 22.30639 116.21594 33981 ft 417 kts 267°
2026-04-27 09:56 22.30561 116.18480 33492 ft 415 kts 267°
2026-04-27 09:56 22.30481 116.15371 33012 ft 411 kts 267°
2026-04-27 09:56 22.30402 116.12300 32550 ft 407 kts 267°
2026-04-27 09:56 22.30323 116.09266 32106 ft 402 kts 267°
2026-04-27 09:57 22.30245 116.06256 31660 ft 398 kts 267°
2026-04-27 09:57 22.30167 116.03279 31219 ft 397 kts 267°
2026-04-27 09:57 22.30089 116.00300 30776 ft 396 kts 267°
2026-04-27 09:57 22.30010 115.97334 30338 ft 395 kts 267°
2026-04-27 09:58 22.29931 115.94375 29875 ft 393 kts 268°
2026-04-27 09:58 22.29854 115.91468 29408 ft 390 kts 268°
2026-04-27 09:58 22.29776 115.88551 28981 ft 387 kts 268°
2026-04-27 09:58 22.29699 115.85678 28534 ft 384 kts 267°
2026-04-27 09:59 22.29621 115.82805 28094 ft 382 kts 267°
2026-04-27 09:59 22.29544 115.79945 27681 ft 379 kts 267°
2026-04-27 09:59 22.29469 115.77109 27262 ft 377 kts 267°
2026-04-27 09:59 22.29395 115.74287 26829 ft 375 kts 267°
2026-04-27 10:00 22.29322 115.71486 26392 ft 372 kts 267°
2026-04-27 10:00 22.29248 115.68702 25968 ft 370 kts 267°
2026-04-27 10:00 22.29178 115.65936 25540 ft 367 kts 267°
2026-04-27 10:00 22.29104 115.63191 25112 ft 365 kts 266°
2026-04-27 10:01 22.29029 115.60450 24679 ft 364 kts 266°
2026-04-27 10:01 22.28952 115.57725 24244 ft 362 kts 266°
2026-04-27 10:01 22.28876 115.55020 23813 ft 360 kts 266°
2026-04-27 10:01 22.28801 115.52322 23351 ft 359 kts 266°
2026-04-27 10:02 22.28725 115.49638 22884 ft 356 kts 266°
2026-04-27 10:02 22.28650 115.46977 22443 ft 354 kts 266°
2026-04-27 10:02 22.28574 115.44326 22015 ft 352 kts 266°
2026-04-27 10:02 22.28499 115.41689 21583 ft 350 kts 266°
2026-04-27 10:03 22.28424 115.39071 21150 ft 348 kts 266°
2026-04-27 10:03 22.28349 115.36468 20717 ft 346 kts 266°
2026-04-27 10:03 22.28274 115.33875 20295 ft 344 kts 266°
2026-04-27 10:03 22.28200 115.31293 19872 ft 342 kts 266°
2026-04-27 10:04 22.28122 115.28735 19453 ft 340 kts 266°
2026-04-27 10:04 22.28043 115.26187 19031 ft 338 kts 266°
2026-04-27 10:04 22.27964 115.23664 18614 ft 337 kts 266°
2026-04-27 10:04 22.27886 115.21141 18184 ft 335 kts 266°
2026-04-27 10:05 22.27808 115.18626 17716 ft 334 kts 266°
2026-04-27 10:05 22.27730 115.16130 17306 ft 332 kts 266°
2026-04-27 10:05 22.27653 115.13643 16884 ft 331 kts 266°
2026-04-27 10:05 22.27575 115.11164 16470 ft 330 kts 266°
2026-04-27 10:06 22.27497 115.08693 16044 ft 328 kts 266°
2026-04-27 10:06 22.27419 115.06243 15637 ft 327 kts 266°
2026-04-27 10:06 22.27342 115.03828 15240 ft 325 kts 266°
2026-04-27 10:06 22.27264 115.01390 14842 ft 324 kts 266°
2026-04-27 10:07 22.27186 114.98965 14417 ft 323 kts 266°
2026-04-27 10:07 22.27108 114.96548 14017 ft 321 kts 266°
2026-04-27 10:07 22.27030 114.94142 13598 ft 320 kts 266°
2026-04-27 10:07 22.26952 114.91743 13185 ft 318 kts 266°
2026-04-27 10:08 22.26877 114.89364 12784 ft 316 kts 266°
2026-04-27 10:08 22.26798 114.86997 12372 ft 315 kts 266°
2026-04-27 10:08 22.26719 114.84659 11994 ft 312 kts 266°
2026-04-27 10:08 22.26640 114.82312 11595 ft 310 kts 266°
2026-04-27 10:09 22.26487 114.80000 11211 ft 308 kts 259°
2026-04-27 10:09 22.25817 114.77832 10849 ft 304 kts 239°
2026-04-27 10:09 22.24488 114.76013 10795 ft 318 kts 225°
2026-04-27 10:09 22.22873 114.74328 10656 ft 324 kts 224°
2026-04-27 10:10 22.21231 114.72663 10515 ft 324 kts 224°
2026-04-27 10:10 22.19610 114.71015 10355 ft 312 kts 224°
2026-04-27 10:10 22.18049 114.69421 10157 ft 314 kts 224°
2026-04-27 10:10 22.16457 114.67790 9975 ft 322 kts 224°
2026-04-27 10:11 22.14876 114.66171 9777 ft 301 kts 224°
2026-04-27 10:11 22.13416 114.64675 9506 ft 280 kts 224°
2026-04-27 10:11 22.12002 114.63223 9253 ft 282 kts 224°
2026-04-27 10:11 22.10597 114.61781 9066 ft 282 kts 224°
2026-04-27 10:12 22.09171 114.60319 8930 ft 281 kts 224°
2026-04-27 10:12 22.07758 114.58870 8807 ft 280 kts 224°
2026-04-27 10:12 22.06363 114.57440 8671 ft 279 kts 224°
2026-04-27 10:12 22.04949 114.55991 8435 ft 277 kts 224°
2026-04-27 10:13 22.03552 114.54559 8186 ft 277 kts 224°
2026-04-27 10:13 22.02283 114.53009 7926 ft 276 kts 237°
2026-04-27 10:13 22.01428 114.51162 7703 ft 275 kts 246°
2026-04-27 10:13 22.00705 114.49253 7457 ft 276 kts 247°
2026-04-27 10:14 21.99989 114.47336 7229 ft 275 kts 247°
2026-04-27 10:14 21.99270 114.45429 6989 ft 274 kts 247°
2026-04-27 10:14 21.98549 114.43533 6756 ft 273 kts 247°
2026-04-27 10:14 21.97829 114.41639 6521 ft 271 kts 246°
2026-04-27 10:15 21.97115 114.39773 6280 ft 271 kts 246°
2026-04-27 10:15 21.96397 114.37896 6044 ft 270 kts 246°
2026-04-27 10:15 21.95679 114.36024 5794 ft 271 kts 246°
2026-04-27 10:15 21.94961 114.34149 5534 ft 270 kts 246°
2026-04-27 10:16 21.94242 114.32279 5303 ft 270 kts 246°
2026-04-27 10:16 21.93525 114.30409 5072 ft 270 kts 246°
2026-04-27 10:16 21.92818 114.28563 4928 ft 270 kts 245°
2026-04-27 10:16 21.92101 114.26698 4816 ft 269 kts 245°
2026-04-27 10:17 21.91386 114.24836 4690 ft 269 kts 245°
2026-04-27 10:17 21.90670 114.22973 4559 ft 269 kts 245°
2026-04-27 10:17 21.89977 114.21109 4450 ft 270 kts 249°
2026-04-27 10:17 21.89696 114.19111 4313 ft 273 kts 272°
2026-04-27 10:18 21.90241 114.17154 4201 ft 276 kts 295°
2026-04-27 10:18 21.91162 114.15335 4075 ft 277 kts 298°
2026-04-27 10:18 21.92125 114.13538 3954 ft 277 kts 298°
2026-04-27 10:18 21.93080 114.11731 3828 ft 276 kts 298°
2026-04-27 10:19 21.94022 114.09933 3704 ft 275 kts 298°
2026-04-27 10:19 21.94959 114.08135 3580 ft 276 kts 297°
2026-04-27 10:19 21.95898 114.06325 3466 ft 277 kts 297°
2026-04-27 10:19 21.96516 114.05131 3387 ft 276 kts 297°
2026-04-27 10:20 21.97761 114.02723 3228 ft 276 kts 297°
2026-04-27 10:20 21.98382 114.01521 3139 ft 276 kts 297°
2026-04-27 10:20 21.99624 113.99113 3020 ft 275 kts 297°
2026-04-27 10:20 22.00241 113.97916 2998 ft 275 kts 297°
2026-04-27 10:21 22.01169 113.96116 3003 ft 275 kts 297°
2026-04-27 10:21 22.02099 113.94313 2999 ft 276 kts 297°
2026-04-27 10:21 22.03027 113.92511 2995 ft 274 kts 297°
2026-04-27 10:21 22.03954 113.90712 3009 ft 274 kts 297°
2026-04-27 10:22 22.04879 113.88914 2993 ft 275 kts 297°
2026-04-27 10:22 22.05807 113.87112 3006 ft 274 kts 297°
2026-04-27 10:22 22.06731 113.85317 2991 ft 275 kts 297°
2026-04-27 10:22 22.07660 113.83511 3009 ft 275 kts 297°
2026-04-27 10:23 22.09477 113.79985 3009 ft 256 kts 297°
2026-04-27 10:23 22.10476 113.78492 3014 ft 238 kts 313°
2026-04-27 10:23 22.11851 113.77553 2991 ft 235 kts 340°
2026-04-27 10:24 22.16662 113.76868 3002 ft 223 kts 355°
2026-04-27 10:24 22.18156 113.76709 2988 ft 208 kts 355°
2026-04-27 10:25 22.19572 113.76557 3006 ft 203 kts 354°
2026-04-27 10:25 22.20980 113.76402 2987 ft 202 kts 354°
2026-04-27 10:25 22.22355 113.76245 2756 ft 198 kts 354°
2026-04-27 10:25 22.23719 113.76089 2513 ft 197 kts 355°
2026-04-27 10:26 22.25074 113.75937 2334 ft 202 kts 355°
2026-04-27 10:26 22.26483 113.75803 2177 ft 202 kts 358°
2026-04-27 10:26 22.27807 113.76130 2028 ft 188 kts 35°
2026-04-27 10:26 22.28588 113.77094 1947 ft 160 kts 69°
2026-04-27 10:27 22.28950 113.78176 1890 ft 150 kts 77°
2026-04-27 10:27 22.29269 113.79241 1725 ft 147 kts 74°
2026-04-27 10:27 22.29611 113.80278 1527 ft 145 kts 76°
2026-04-27 10:27 22.29939 113.81300 1327 ft 143 kts 73°
2026-04-27 10:28 22.30269 113.82322 1143 ft 144 kts 75°
2026-04-27 10:28 22.30595 113.83344 971 ft 144 kts 74°
2026-04-27 10:28 22.30925 113.84353 777 ft 142 kts 71°
2026-04-27 10:28 22.31263 113.85377 619 ft 145 kts 75°
2026-04-27 10:29 22.31475 113.86386 497 ft 146 kts 71°
2026-04-27 10:29 22.32018 113.87427 993 ft 172 kts 64°
2026-04-27 10:29 22.32443 113.88659 1906 ft 177 kts 75°
2026-04-27 10:29 22.32800 113.89923 2621 ft 173 kts 77°
2026-04-27 10:30 22.33173 113.91219 2807 ft 191 kts 76°
2026-04-27 10:30 22.33601 113.92637 2953 ft 202 kts 75°
2026-04-27 10:30 22.34055 113.94062 3087 ft 206 kts 73°
2026-04-27 10:30 22.34836 113.95409 3263 ft 221 kts 47°
2026-04-27 10:31 22.36046 113.96479 3729 ft 227 kts 38°
2026-04-27 10:31 22.37326 113.97492 4330 ft 229 kts 38°
2026-04-27 10:31 22.38617 113.98519 4800 ft 231 kts 38°
2026-04-27 10:31 22.39915 113.99559 4992 ft 234 kts 37°
2026-04-27 10:32 22.41226 114.00613 5000 ft 235 kts 38°
2026-04-27 10:32 22.42531 114.01676 5006 ft 236 kts 38°
2026-04-27 10:32 22.43749 114.02853 4995 ft 234 kts 54°
2026-04-27 10:32 22.44541 114.04423 5001 ft 247 kts 69°
2026-04-27 10:33 22.45209 114.06188 4984 ft 256 kts 71°
2026-04-27 10:33 22.45876 114.07983 4998 ft 258 kts 70°
2026-04-27 10:33 22.46552 114.09782 4997 ft 257 kts 70°
2026-04-27 10:33 22.47224 114.11545 4997 ft 256 kts 70°
2026-04-27 10:34 22.47907 114.13333 5003 ft 257 kts 70°
2026-04-27 10:34 22.48586 114.15130 5001 ft 258 kts 70°
2026-04-27 10:34 22.49251 114.16922 4997 ft 257 kts 71°
2026-04-27 10:34 22.49431 114.18703 5013 ft 251 kts 103°